This demonstration page uses our WeatherBlox Daily Observations layout. Learn more.

Left ArrowRight Arrow

38.83388, -104.82136

Hourly Observations for January 31, 2022

Temp ( °F °C ) Dew Point ( °F °C ) Humidity (%) Winds ( mph kmh ) Pressure ( in mb ) Visibility ( mi km ) Precip ( " mm )
12:58 am 00:58 Clear 38 3.5 -4 -20 16 16 SW 6 9 29.62 1003 10 16 0.00 0.00
1:58 am 01:58 Clear 38 3.4 -4 -20.1 16 16 SW 3 6 29.62 1003 10 16 0.00 0.00
2:58 am 02:58 Clear 37 2.9 -5 -20.5 16 16 Calm 29.60 1002 10 16 0.00 0.00
3:58 am 03:58 Clear 39 4 -8 -22 13 13 WSW 6 9 29.57 1002 10 16 0.00 0.00
4:58 am 04:58 Clear 38 3.1 -6 -21.1 15 15 SW 6 9 29.57 1001 10 16 0.00 0.00
5:58 am 05:58 Clear 38 3.2 -9 -22.6 13 13 SW 3 6 29.55 1001 10 16 0.00 0.00
6:58 am 06:58 Clear 45 7.1 -19 -28.2 6 6 SSE 10 17 29.51 999 10 16 0.00 0.00
7:58 am 07:58 Sunny 50 9.8 -23 -30.6 4 4 SE 10 17 29.47 998 10 16 0.00 0.00
8:58 am 08:58 Sunny 49 9.6 -15 -26.3 6 6 Calm 29.46 998 10 16 0.00 0.00
9:58 am 09:58 Sunny 51 10.6 -22 -30 4 4 Calm 29.44 997 10 16 0.00 0.00
10:58 am 10:58 Sunny 53 11.9 -16 -26.7 5 5 NE 3 6 29.42 996 10 16 0.00 0.00
11:58 am 11:58 Sunny 53 11.9 -16 -26.7 5 5 Calm 29.38 995 10 16 0.00 0.00
12:58 pm 12:58 Sunny 54 12.2 -9 -22.7 7 7 Calm 29.33 993 10 16 0.00 0.00
1:58 pm 13:58 Cloudy 54 12.3 -9 -22.6 7 7 W 3 6 29.29 992 10 16 0.00 0.00
2:58 pm 14:58 Sunny 52 10.9 -5 -20.8 9 9 SW 5 7 29.30 992 10 16 0.00 0.00
3:58 pm 15:58 Sunny 52 10.9 -3 -19.6 10 10 WSW 13 20 29.29 992 10 16 0.00 0.00
4:58 pm 16:58 Sunny 50 10.1 -2 -19.1 11 11 SW 3 6 29.46 997 10 16 0.00 0.00
5:58 pm 17:58 Clear 45 7.4 3 -16.1 17 17 SE 6 9 29.38 995 10 16 0.00 0.00
6:58 pm 18:58 Clear 44 6.5 5 -14.9 20 20 Calm 29.37 995 10 16 0.00 0.00
7:58 pm 19:58 Clear 42 5.8 -1 -18.1 16 16 SSE 3 6 29.37 995 10 16 0.00 0.00
8:58 pm 20:58 Clear 37 2.7 6 -14.5 27 27 WSW 5 7 29.45 997 10 16 0.00 0.00
9:58 pm 21:58 Clear 36 2.3 5 -14.8 27 27 SSE 5 7 29.47 998 10 16 0.00 0.00
10:58 pm 22:58 Clear 34 0.9 6 -14.3 31 31 E 3 6 29.47 998 10 16 0.00 0.00
11:58 pm 23:58 Clear 33 0.3 7 -13.7 34 34 E 7 11 29.48 998 10 16 0.00 0.00

Powered by AerisWeather